CST,Max TemperatureF,Mean TemperatureF,Min TemperatureF,Max Dew PointF,MeanDew PointF,Min DewpointF,Max Humidity, Mean Humidity, Min Humidity, Max Sea Level PressureIn, Mean Sea Level PressureIn, Min Sea Level PressureIn, Max VisibilityMiles, Mean VisibilityMiles, Min VisibilityMiles, Max Wind SpeedMPH, Mean Wind SpeedMPH, Max Gust SpeedMPH,PrecipitationIn, CloudCover, Events, WindDirDegrees
2013-12-1,69,56,43,60,52,43,100,81,61,30.26,30.15,29.97,10,8,1,12,6,15,0.00,6,,146
2013-12-2,78,69,60,63,61,59,100,78,56,29.96,29.81,29.72,10,7,0,23,9,31,0.00,4,Fog,207
2013-12-3,79,70,60,67,64,59,100,81,62,29.76,29.72,29.67,10,4,0,22,9,30,0.00,7,Fog,198
2013-12-4,79,73,67,72,69,66,100,88,76,29.86,29.80,29.74,9,3,0,15,10,22,0.00,8,Fog,170
2013-12-5,80,64,48,72,65,46,100,87,74,29.98,29.90,29.83,10,6,2,20,12,24,T,8,,171
2013-12-6,48,45,41,46,40,35,93,85,76,30.31,30.13,29.95,10,9,3,26,15,32,T,8,Rain,355
2013-12-7,41,39,37,36,33,31,85,81,76,30.38,30.31,30.27,10,10,10,23,11,30,0.00,8,,10
2013-12-8,48,43,38,43,38,33,86,79,71,30.25,30.14,30.06,10,9,2,13,7,26,0.03,8,Rain,16
2013-12-9,49,46,42,45,43,39,96,88,80,30.25,30.13,30.05,10,6,1,21,11,26,0.14,8,Rain,12
2013-12-10,51,44,36,38,34,32,89,70,50,30.43,30.35,30.26,10,10,7,25,12,33,0.00,4,,359
2013-12-11,50,43,35,40,36,32,92,77,61,30.48,30.40,30.35,10,10,9,13,6,17,0.00,7,,17
2013-12-12,57,47,37,37,34,32,85,63,41,30.54,30.46,30.35,10,10,10,15,8,18,0.00,0,,30
2013-12-13,66,53,40,63,49,33,93,77,61,30.35,30.04,29.89,10,7,1,17,8,21,0.41,7,Rain,110
2013-12-14,65,55,45,63,51,35,100,83,65,30.23,29.95,29.86,10,5,0,25,12,33,0.01,6,Fog-Rain,292
2013-12-15,57,45,33,35,33,31,92,68,43,30.36,30.30,30.24,10,9,5,21,7,26,0.00,1,,345
2013-12-16,62,47,31,42,35,30,100,67,34,30.36,30.31,30.25,10,7,1,9,2,12,0.00,0,,158
2013-12-17,69,52,35,48,39,34,100,66,32,30.35,30.29,30.25,10,4,0,10,2,14,0.00,1,Fog,209
2013-12-18,68,54,39,53,44,37,100,73,45,30.34,30.28,30.16,10,4,0,14,5,16,0.00,1,Fog,136
2013-12-19,74,65,56,65,59,52,93,79,64,30.14,30.02,29.93,10,10,10,25,13,31,T,7,Rain,152
2013-12-20,76,72,68,70,68,66,93,88,82,29.97,29.89,29.83,10,8,5,26,17,33,T,8,Rain,155
2013-12-21,76,64,51,72,64,51,100,95,90,29.82,29.70,29.60,10,5,0,24,12,33,0.70,7,Fog-Rain,180
2013-12-22,64,52,39,59,50,32,100,84,67,30.30,29.99,29.82,10,7,0,21,8,28,T,7,Fog-Rain,329
2013-12-23,53,44,35,34,32,30,82,63,44,30.52,30.41,30.29,10,10,10,18,11,24,0.00,2,,360
2013-12-24,56,44,31,36,32,26,92,62,32,30.57,30.47,30.35,10,10,9,12,5,15,0.00,0,,60
2013-12-25,58,47,36,41,36,32,92,66,39,30.39,30.34,30.30,10,10,10,13,6,17,0.00,2,,68
2013-12-26,62,51,40,42,37,28,83,58,32,30.42,30.35,30.30,10,10,10,12,4,16,0.00,2,,62
2013-12-27,55,52,48,42,38,34,80,63,46,30.44,30.36,30.31,10,10,10,13,6,16,0.00,2,,28
2013-12-28,57,47,37,41,37,34,92,72,51,30.30,30.15,30.05,10,10,4,9,3,13,0.00,1,,12
2013-12-29,66,51,36,45,38,33,100,66,31,30.16,30.07,30.03,10,8,2,10,2,14,0.00,1,,179
2013-12-30,52,47,42,45,38,35,80,73,65,30.38,30.25,30.12,10,10,10,16,9,20,0.00,2,,348
2013-12-31,51,46,40,40,37,35,85,73,61,30.42,30.36,30.29,10,10,8,14,6,17,0.00,1,,40